Notices

What's New in latest Release from April 7th, 2021:

- Updated Glossary, including Speed of Maximum Gust, and Total Hourly Precipitation

- Updated national and regional climate services offices contacts and prices information

- Addition of station inventory lists for 1981-2010, 1971-2000, and 1961-1990 Normals.

If you haven't already, please take our survey and provide feedback about our website: https://eccc.sondage-survey.ca/f/LanguageSelection.aspx?s=442ca660-fcf1-47c0-95a9-59707d6fd709

Hourly Data Report for March 29, 2019

MIRAMICHI RCS
NEW BRUNSWICK
Current Station Operator: ECCC - MSC

47°00'34.000" N
65°27'54.000" W
33.00 m
8100989
71744
ACQ

Download Data

Hourly Data (March 2019)
Hourly Data Report for March 29, 2019
TIME
LST
Temp Definition
°C
Dew Point Definition
°C
Rel Hum Definition
%
Precip. Amount Definition
mm

Wind Dir Definition
10's deg

Wind Spd Definition
km/h
Visibility Definition
km
Stn Press Definition
kPa
Hmdx Definition


Wind Chill Definition


Weather Definition


00:00 1.4 -0.8 85 0.0 22 26   101.51     LegendNANA
01:00 1.3 0.0 91 0.0 21 24   101.43     LegendNANA
02:00 1.6 0.3 91 0.0 21 25   101.37     LegendNANA
03:00 1.7 0.5 92 0.0 22 22   101.31     LegendNANA
04:00 1.8 0.7 92 0.2 21 23   101.28     LegendNANA
05:00 1.8 0.8 93 0.0 21 21   101.27     LegendNANA
06:00 1.7 0.8 94 0.2 22 20   101.26     LegendNANA
07:00 2.0 1.1 94 0.5 22 19   101.25     LegendNANA
08:00 2.3 1.4 94 0.6 21 21   101.22     LegendNANA
09:00 2.8 1.8 93 0.3 21 20   101.19     LegendNANA
10:00 3.5 2.5 93 0.0 22 16   101.21     LegendNANA
11:00 3.7 2.8 94 0.0 22 18   101.18     LegendNANA
12:00 3.9 2.7 92 0.0 22 21   101.13     LegendNANA
13:00 4.2 2.6 89 0.0 22 21   101.11     LegendNANA
14:00 4.6 3.2 91 0.0 23 18   101.05     LegendNANA
15:00 4.7 3.5 92 0.0 21 17   101.02     LegendNANA
16:00 4.5 3.5 93 0.2 21 13   101.03     LegendNANA
17:00 4.1 3.5 95 0.5 19 14   101.03     LegendNANA
18:00 3.7 3.1 96 0.0 23 13   101.10     LegendNANA
19:00 3.3 2.9 97 0.2 21 11   101.16     LegendNANA
20:00 3.6 3.2 97 0.0 25 8   101.26     LegendNANA
21:00 3.6 3.1 96 0.0 25 8   101.31     LegendNANA
22:00 3.4 3.0 97 0.0 26 8   101.37     LegendNANA
23:00 2.9 1.0 87 0.0 1 7   101.49     LegendNANA

Notes on Data Quality.

Legend

  • E = Estimated
  • M = Missing
  • NA = Not Available*
  • [empty] = Indicates an unobserved value
Date modified: